• In Hungary
  • List of Countries
  • For 7 days
  • Water Temperature
  • Satellite Maps
  • Weather Map
  • News
  • Weather Widgets
  • user-avatar
    Login

    Hourly Weather Puerto La Cruz

    Today, 14 December, Thursday

    Time Temperature Precipitation Wind Pressure Humidity
    00:00 +25°C° 0.2 mm 4 mps 737 mmHg 84%
    01:00 +23°C° 0.2 mm 4 mps 737 mmHg 85%
    02:00 +23°C° 0.2 mm 4 mps 737 mmHg 86%
    03:00 +23°C° 0 mm 4 mps 737 mmHg 87%
    04:00 +23°C° 0 mm 4 mps 737 mmHg 87%
    05:00 +22°C° 0 mm 3 mps 737 mmHg 88%
    06:00 +24°C° 0.1 mm 3 mps 737 mmHg 83%
    07:00 +26°C° 0.1 mm 3 mps 737 mmHg 78%
    08:00 +27°C° 0.1 mm 3 mps 738 mmHg 73%
    09:00 +29°C° 0 mm 3 mps 738 mmHg 63%
    10:00 +33°C° 0 mm 3 mps 738 mmHg 54%
    11:00 +35°C° 0 mm 3 mps 738 mmHg 45%
    12:00 +35°C° 0 mm 3 mps 738 mmHg 45%
    13:00 +35°C° 0 mm 4 mps 737 mmHg 45%
    14:00 +35°C° 0 mm 4 mps 736 mmHg 45%
    15:00 +34°C° 0 mm 5 mps 736 mmHg 50%
    16:00 +32°C° 0 mm 5 mps 736 mmHg 54%
    17:00 +30°C° 0 mm 5 mps 735 mmHg 59%
    18:00 +29°C° 0 mm 5 mps 736 mmHg 64%
    19:00 +28°C° 0 mm 5 mps 736 mmHg 69%
    20:00 +26°C° 0 mm 5 mps 736 mmHg 74%
    21:00 +26°C° 0 mm 5 mps 737 mmHg 76%
    22:00 +25°C° 0 mm 5 mps 737 mmHg 78%
    23:00 +25°C° 0 mm 5 mps 737 mmHg 81%

    Tomorrow, 15 December, Friday

    Time Temperature Precipitation Wind Pressure Humidity
    00:00 +23°C° 0 mm 5 mps 737 mmHg 83%
    01:00 +23°C° 0 mm 4 mps 737 mmHg 85%
    02:00 +22°C° 0 mm 4 mps 737 mmHg 87%
    03:00 +22°C° 0 mm 4 mps 737 mmHg 88%
    04:00 +22°C° 0 mm 3 mps 737 mmHg 88%
    05:00 +21°C° 0 mm 3 mps 736 mmHg 89%
    06:00 +24°C° 0 mm 3 mps 737 mmHg 83%
    07:00 +25°C° 0 mm 3 mps 737 mmHg 77%
    08:00 +26°C° 0 mm 3 mps 738 mmHg 71%
    09:00 +29°C° 0 mm 3 mps 738 mmHg 61%
    10:00 +33°C° 0 mm 3 mps 738 mmHg 51%
    11:00 +36°C° 0 mm 3 mps 739 mmHg 41%
    12:00 +35°C° 0 mm 3 mps 738 mmHg 42%
    13:00 +35°C° 0 mm 4 mps 737 mmHg 44%
    14:00 +34°C° 0 mm 4 mps 736 mmHg 45%
    15:00 +33°C° 0 mm 5 mps 736 mmHg 49%
    16:00 +32°C° 0 mm 5 mps 735 mmHg 54%
    17:00 +30°C° 0 mm 5 mps 735 mmHg 58%
    18:00 +29°C° 0 mm 5 mps 735 mmHg 65%
    19:00 +27°C° 0 mm 5 mps 736 mmHg 71%
    20:00 +26°C° 0 mm 6 mps 736 mmHg 77%
    21:00 +26°C° 0 mm 5 mps 736 mmHg 79%
    22:00 +25°C° 0 mm 5 mps 737 mmHg 80%
    23:00 +25°C° 0 mm 5 mps 737 mmHg 82%

    Day after tomorrow, 16 December, Saturday

    Time Temperature Precipitation Wind Pressure Humidity
    00:00 +23°C° 0 mm 5 mps 737 mmHg 83%
    01:00 +23°C° 0 mm 4 mps 737 mmHg 84%
    02:00 +22°C° 0 mm 4 mps 736 mmHg 86%
    03:00 +22°C° 0.2 mm 4 mps 736 mmHg 86%
    04:00 +22°C° 0.2 mm 4 mps 736 mmHg 86%
    05:00 +22°C° 0.2 mm 3 mps 736 mmHg 86%
    06:00 +24°C° 0.1 mm 3 mps 736 mmHg 82%
    07:00 +25°C° 0.1 mm 3 mps 737 mmHg 79%
    08:00 +25°C° 0.1 mm 3 mps 737 mmHg 75%
    09:00 +28°C° 0 mm 3 mps 738 mmHg 65%
    10:00 +31°C° 0 mm 3 mps 738 mmHg 55%
    11:00 +35°C° 0 mm 3 mps 738 mmHg 45%
    12:00 +35°C° 0 mm 4 mps 737 mmHg 46%
    13:00 +34°C° 0 mm 4 mps 737 mmHg 47%
    14:00 +34°C° 0 mm 5 mps 736 mmHg 48%
    15:00 +32°C° 0.4 mm 5 mps 735 mmHg 56%
    16:00 +30°C° 0.4 mm 5 mps 735 mmHg 64%
    17:00 +28°C° 0.4 mm 5 mps 735 mmHg 71%
    18:00 +28°C° 0.2 mm 5 mps 735 mmHg 75%
    19:00 +27°C° 0.2 mm 6 mps 736 mmHg 79%
    20:00 +26°C° 0.2 mm 6 mps 736 mmHg 83%
    21:00 +24°C° 0 mm 6 mps 736 mmHg 85%
    22:00 +25°C° 0 mm 5 mps 736 mmHg 86%
    23:00 +25°C° 0 mm 5 mps 736 mmHg 87%

    17 December, Sunday

    Time Temperature Precipitation Wind Pressure Humidity
    00:00 +23°C° 0 mm 5 mps 736 mmHg 87%
    01:00 +23°C° 0 mm 5 mps 736 mmHg 87%
    02:00 +23°C° 0 mm 4 mps 736 mmHg 88%
    03:00 +22°C° 0 mm 4 mps 736 mmHg 88%
    04:00 +22°C° 0 mm 4 mps 736 mmHg 89%
    05:00 +22°C° 0 mm 4 mps 736 mmHg 89%
    06:00 +23°C° 0 mm 4 mps 736 mmHg 85%
    07:00 +25°C° 0 mm 4 mps 737 mmHg 80%
    08:00 +26°C° 0 mm 4 mps 738 mmHg 75%
    09:00 +29°C° 0 mm 4 mps 738 mmHg 66%
    10:00 +32°C° 0 mm 4 mps 738 mmHg 57%
    11:00 +35°C° 0 mm 4 mps 738 mmHg 48%
    12:00 +34°C° 0.1 mm 4 mps 737 mmHg 51%
    13:00 +33°C° 0.1 mm 5 mps 737 mmHg 54%
    14:00 +33°C° 0.1 mm 5 mps 736 mmHg 56%
    15:00 +32°C° 0.1 mm 5 mps 736 mmHg 59%
    16:00 +30°C° 0.1 mm 5 mps 735 mmHg 61%
    17:00 +30°C° 0.1 mm 6 mps 735 mmHg 64%
    18:00 +28°C° 0 mm 6 mps 735 mmHg 69%
    19:00 +27°C° 0 mm 6 mps 736 mmHg 74%
    20:00 +26°C° 0 mm 6 mps 736 mmHg 79%
    21:00 +26°C° 0 mm 6 mps 736 mmHg 81%
    22:00 +25°C° 0 mm 5 mps 736 mmHg 82%
    23:00 +25°C° 0 mm 5 mps 737 mmHg 84%

    18 December, Monday

    Time Temperature Precipitation Wind Pressure Humidity
    00:00 +23°C° 0 mm 5 mps 736 mmHg 85%
    01:00 +23°C° 0 mm 4 mps 736 mmHg 87%
    02:00 +23°C° 0 mm 4 mps 736 mmHg 88%
    03:00 +22°C° 0 mm 4 mps 736 mmHg 89%
    04:00 +22°C° 0 mm 4 mps 736 mmHg 89%
    05:00 +22°C° 0 mm 4 mps 736 mmHg 90%
    06:00 +24°C° 0 mm 3 mps 736 mmHg 84%
    07:00 +25°C° 0 mm 3 mps 737 mmHg 79%
    08:00 +27°C° 0 mm 3 mps 738 mmHg 73%
    09:00 +29°C° 0 mm 3 mps 738 mmHg 65%
    10:00 +31°C° 0 mm 3 mps 738 mmHg 57%
    11:00 +35°C° 0 mm 3 mps 738 mmHg 48%
    12:00 +34°C° 0.1 mm 3 mps 737 mmHg 53%
    13:00 +33°C° 0.1 mm 4 mps 736 mmHg 57%
    14:00 +32°C° 0.1 mm 4 mps 736 mmHg 62%
    15:00 +32°C° 0.1 mm 4 mps 735 mmHg 62%
    16:00 +30°C° 0.1 mm 4 mps 735 mmHg 61%
    17:00 +30°C° 0.1 mm 5 mps 735 mmHg 61%
    18:00 +29°C° 0 mm 5 mps 735 mmHg 67%
    19:00 +28°C° 0 mm 5 mps 736 mmHg 73%
    20:00 +26°C° 0 mm 5 mps 736 mmHg 79%
    21:00 +26°C° 0 mm 5 mps 736 mmHg 81%
    22:00 +26°C° 0 mm 5 mps 737 mmHg 83%
    23:00 +25°C° 0 mm 5 mps 737 mmHg 85%

    19 December, Tuesday

    Time Temperature Precipitation Wind Pressure Humidity
    00:00 +25°C° 0 mm 5 mps 737 mmHg 87%
    01:00 +23°C° 0 mm 5 mps 736 mmHg 88%
    02:00 +23°C° 0 mm 4 mps 736 mmHg 90%
    03:00 +23°C° 0 mm 4 mps 736 mmHg 90%
    04:00 +23°C° 0 mm 4 mps 736 mmHg 90%
    05:00 +22°C° 0 mm 4 mps 736 mmHg 91%
    06:00 +25°C° 0 mm 3 mps 737 mmHg 85%
    07:00 +26°C° 0 mm 3 mps 737 mmHg 80%
    08:00 +27°C° 0 mm 3 mps 738 mmHg 74%
    09:00 +29°C° 0 mm 3 mps 738 mmHg 65%
    10:00 +33°C° 0 mm 3 mps 738 mmHg 56%
    11:00 +36°C° 0 mm 3 mps 738 mmHg 46%
    12:00 +35°C° 0.2 mm 3 mps 737 mmHg 51%
    13:00 +34°C° 0.2 mm 4 mps 736 mmHg 55%
    14:00 +33°C° 0.2 mm 4 mps 736 mmHg 59%
    15:00 +32°C° 0.1 mm 5 mps 735 mmHg 59%
    16:00 +32°C° 0.1 mm 5 mps 735 mmHg 60%
    17:00 +32°C° 0.1 mm 5 mps 735 mmHg 60%
    18:00 +29°C° 0 mm 5 mps 735 mmHg 66%
    19:00 +28°C° 0 mm 6 mps 736 mmHg 72%
    20:00 +27°C° 0 mm 6 mps 736 mmHg 78%
    21:00 +26°C° 0.1 mm 6 mps 736 mmHg 80%
    22:00 +26°C° 0.1 mm 5 mps 737 mmHg 82%
    23:00 +25°C° 0.1 mm 5 mps 737 mmHg 85%
    Show more